Location: *
(2.5500°S, 65.9667°W)
Time: 06:09:55
(UTC+00:00)

Tiros 1 despin weight - Pass Details

Date: 20 April 2024
Orbit: 578 x 621 km, 48.2° (Epoch: 25 May)

Event Time Altitude Azimuth Distance (km) Brightness Sun altitude
Rises 02:22:26 0° 315° (NW) 2,879 - -58.8°
Reaches altitude 10° 02:24:46 10° 312° (NW) 1,974 - -59.4°
Maximum altitude 02:29:15 64° 231° (SW) 681 - -60.4°
Drops below altitude 10° 02:33:44 10° 149° (SSE) 1,963 - -61.5°
Sets 02:36:03 0° 146° (SE) 2,863 - -62.0°
